This is the latest recevied weather packets stored in our database for station/object NEWPRT. If no packets are shown the sender has not sent any weather packets the latest 10 day(s).
| Time | Temp. | Humidity | Pressure | Rain* | Wind** | Luminosity | Snow |
|---|---|---|---|---|---|---|---|
| 1778199963 | - | 50% | 1019.1 hPa | 0 mm | - | - | - |
| 1778199640 | - | 51% | 1019.1 hPa | 0 mm | - | - | - |
| 1778199317 | - | 51% | 1019.2 hPa | 0 mm | - | - | - |
| 1778198994 | - | 50% | 1019.3 hPa | 0 mm | - | - | - |
| 1778198671 | - | 49% | 1019.2 hPa | 0 mm | - | - | - |
| 1778198348 | - | 48% | 1019.2 hPa | 0 mm | - | - | - |
| 1778198025 | - | 48% | 1019.4 hPa | 0 mm | - | - | - |
| 1778197702 | - | 48% | 1019.4 hPa | 0 mm | - | - | - |
| 1778197379 | - | 47% | 1019.4 hPa | 0 mm | - | - | - |
| 1778197056 | - | 48% | 1019.3 hPa | 0 mm | - | - | - |
| 1778196733 | - | 47% | 1019.3 hPa | 0 mm | - | - | - |
| 1778196411 | - | 47% | 1019.5 hPa | 0 mm | - | - | - |
| 1778196088 | - | 50% | 1019.5 hPa | 0 mm | - | - | - |
| 1778195763 | - | 51% | 1019.6 hPa | 0 mm | - | - | - |
| 1778195441 | - | 47% | 1019.6 hPa | 0 mm | - | - | - |
| 1778195118 | - | 47% | 1019.6 hPa | 0 mm | - | - | - |
| 1778194795 | - | 48% | 1019.6 hPa | 0 mm | - | - | - |
| 1778194472 | - | 48% | 1019.8 hPa | 0 mm | - | - | - |
| 1778194149 | - | 49% | 1019.8 hPa | 0 mm | - | - | - |
| 1778193826 | - | 46% | 1019.7 hPa | 0 mm | - | - | - |
| 1778193503 | - | 48% | 1019.7 hPa | 0 mm | - | - | - |
| 1778193181 | - | 46% | 1019.9 hPa | 0 mm | - | - | - |
| 1778192857 | - | 46% | 1019.8 hPa | 0 mm | - | - | - |
| 1778192534 | - | 48% | 1020.1 hPa | 0 mm | - | - | - |
| 1778192211 | - | 47% | 1020.1 hPa | 0 mm | - | - | - |
* Rain latest hour (hover to see other rain measurements)
** Current wind speed in m/s (hover to see current wind gust speed)